Year,Month,Day,Hour,Minute,Value (Times are PST for windspeed in km/hr)
2012,01,01,00,00,2.20
2012,01,01,00,01,4.10
2012,01,01,00,02,6.00
2012,01,01,00,03,4.80
2012,01,01,00,04,3.40
2012,01,01,00,05,3.70
2012,01,01,00,06,2.70
2012,01,01,00,07,2.80
2012,01,01,00,08,4.10
2012,01,01,00,09,1.50
2012,01,01,00,10,0.60
2012,01,01,00,11,1.50
2012,01,01,00,12,1.10
2012,01,01,00,13,2.10
2012,01,01,00,14,3.10
2012,01,01,00,15,2.00
2012,01,01,00,16,1.90
2012,01,01,00,17,5.20
2012,01,01,00,18,6.60
2012,01,01,00,19,6.10
2012,01,01,00,20,6.10
2012,01,01,00,21,4.10
2012,01,01,00,22,1.00
2012,01,01,00,23,1.70
2012,01,01,00,24,1.20
2012,01,01,00,25,0.80
2012,01,01,00,26,0.10
2012,01,01,00,27,0.80
2012,01,01,00,28,3.50
2012,01,01,00,29,3.90
2012,01,01,00,30,3.00
2012,01,01,00,31,3.10
2012,01,01,00,32,4.10
2012,01,01,00,33,3.50
2012,01,01,00,34,4.50
2012,01,01,00,35,4.90
2012,01,01,00,36,3.10
2012,01,01,00,37,3.70
2012,01,01,00,38,2.80
2012,01,01,00,39,3.50
2012,01,01,00,40,2.80
2012,01,01,00,41,1.20
2012,01,01,00,42,3.40
2012,01,01,00,43,4.80
2012,01,01,00,44,2.80
2012,01,01,00,45,1.00
2012,01,01,00,46,2.60
2012,01,01,00,47,5.90
2012,01,01,00,48,4.70
2012,01,01,00,49,3.60
2012,01,01,00,50,5.00
2012,01,01,00,51,5.80
2012,01,01,00,52,4.70
2012,01,01,00,53,4.80
2012,01,01,00,54,4.50
2012,01,01,00,55,2.90
2012,01,01,00,56,5.40
2012,01,01,00,57,6.30
2012,01,01,00,58,7.40
2012,01,01,00,59,8.30
2012,01,01,01,00,4.80
2012,01,01,01,01,5.50
2012,01,01,01,02,6.40
2012,01,01,01,03,5.90
2012,01,01,01,04,4.50
2012,01,01,01,05,4.50
2012,01,01,01,06,4.60
2012,01,01,01,07,2.20
2012,01,01,01,08,1.50
2012,01,01,01,09,2.30
2012,01,01,01,10,2.00
2012,01,01,01,11,1.80
2012,01,01,01,12,3.10
2012,01,01,01,13,5.30
2012,01,01,01,14,5.90
2012,01,01,01,15,3.60
2012,01,01,01,16,3.90
2012,01,01,01,17,3.60
2012,01,01,01,18,2.80
2012,01,01,01,19,3.90
2012,01,01,01,20,3.30
2012,01,01,01,21,4.40
2012,01,01,01,22,3.40
2012,01,01,01,23,2.60
2012,01,01,01,24,5.60
2012,01,01,01,25,5.20
2012,01,01,01,26,4.20
2012,01,01,01,27,4.10
2012,01,01,01,28,4.10
2012,01,01,01,29,2.20
2012,01,01,01,30,2.30
2012,01,01,01,31,1.50
2012,01,01,01,32,2.50
2012,01,01,01,33,3.10
2012,01,01,01,34,3.80
2012,01,01,01,35,2.90
2012,01,01,01,36,5.70
2012,01,01,01,37,3.20
2012,01,01,01,38,3.10
2012,01,01,01,39,3.90
2012,01,01,01,40,3.00
2012,01,01,01,41,3.30
2012,01,01,01,42,4.20
2012,01,01,01,43,3.70
2012,01,01,01,44,3.40
2012,01,01,01,45,8.20
2012,01,01,01,46,5.60
2012,01,01,01,47,2.70
2012,01,01,01,48,3.60
2012,01,01,01,49,3.10
2012,01,01,01,50,3.40
2012,01,01,01,51,2.10
2012,01,01,01,52,3.10
2012,01,01,01,53,4.30
2012,01,01,01,54,5.30
2012,01,01,01,55,2.80
2012,01,01,01,56,3.00
2012,01,01,01,57,2.30
2012,01,01,01,58,2.60
2012,01,01,01,59,2.20
2012,01,01,02,00,1.30
2012,01,01,02,01,2.00
2012,01,01,02,02,3.50
2012,01,01,02,03,3.10
2012,01,01,02,04,0.40
2012,01,01,02,05,0.50
2012,01,01,02,06,0.00
2012,01,01,02,07,5.80
2012,01,01,02,08,2.60
2012,01,01,02,09,3.20
2012,01,01,02,10,1.00
2012,01,01,02,11,4.40
2012,01,01,02,12,2.60
2012,01,01,02,13,2.80
2012,01,01,02,14,2.50
2012,01,01,02,15,4.90
2012,01,01,02,16,3.30
2012,01,01,02,17,5.60
2012,01,01,02,18,2.10
2012,01,01,02,19,2.00
2012,01,01,02,20,2.10
2012,01,01,02,21,2.40
2012,01,01,02,22,5.00
2012,01,01,02,23,3.30
2012,01,01,02,24,5.00
2012,01,01,02,25,2.30
2012,01,01,02,26,3.40
2012,01,01,02,27,2.30
2012,01,01,02,28,2.90
2012,01,01,02,29,4.30
2012,01,01,02,30,4.20
2012,01,01,02,31,3.80
2012,01,01,02,32,5.60
2012,01,01,02,33,1.90
2012,01,01,02,34,1.40
2012,01,01,02,35,1.90
2012,01,01,02,36,1.40
2012,01,01,02,37,1.60
2012,01,01,02,38,0.70
2012,01,01,02,39,2.00
2012,01,01,02,40,1.20
2012,01,01,02,41,1.80
2012,01,01,02,42,0.60
2012,01,01,02,43,1.20
2012,01,01,02,44,4.40
2012,01,01,02,45,3.20
2012,01,01,02,46,2.00
2012,01,01,02,47,1.00
2012,01,01,02,48,2.20
2012,01,01,02,49,0.80
2012,01,01,02,50,0.00
2012,01,01,02,51,0.80
2012,01,01,02,52,1.00
2012,01,01,02,53,2.20
2012,01,01,02,54,0.70
2012,01,01,02,55,1.30
2012,01,01,02,56,1.70
2012,01,01,02,57,0.70
2012,01,01,02,58,0.20
2012,01,01,02,59,0.10
2012,01,01,03,00,1.80
2012,01,01,03,01,0.40
2012,01,01,03,02,1.20
2012,01,01,03,03,1.70
2012,01,01,03,04,4.40
2012,01,01,03,05,4.60
2012,01,01,03,06,5.20
2012,01,01,03,07,3.50
2012,01,01,03,08,1.10
2012,01,01,03,09,2.50
2012,01,01,03,10,1.60
2012,01,01,03,11,3.70
2012,01,01,03,12,1.80
2012,01,01,03,13,1.40
2012,01,01,03,14,1.80
2012,01,01,03,15,2.30
2012,01,01,03,16,4.90
2012,01,01,03,17,0.50
2012,01,01,03,18,1.90
2012,01,01,03,19,1.70
2012,01,01,03,20,3.00
2012,01,01,03,21,0.80
2012,01,01,03,22,2.40
2012,01,01,03,23,0.50
2012,01,01,03,24,1.60
2012,01,01,03,25,2.40
2012,01,01,03,26,2.10
2012,01,01,03,27,1.00
2012,01,01,03,28,2.20
2012,01,01,03,29,0.30
2012,01,01,03,30,1.60
2012,01,01,03,31,2.30
2012,01,01,03,32,2.60
2012,01,01,03,33,0.20
2012,01,01,03,34,0.10
2012,01,01,03,35,0.50
2012,01,01,03,36,0.20
2012,01,01,03,37,0.20
2012,01,01,03,38,4.80
2012,01,01,03,39,4.80
2012,01,01,03,40,5.00
2012,01,01,03,41,4.70
2012,01,01,03,42,5.90
2012,01,01,03,43,1.90
2012,01,01,03,44,0.50
2012,01,01,03,45,4.70
2012,01,01,03,46,5.70
2012,01,01,03,47,3.80
2012,01,01,03,48,3.70
2012,01,01,03,49,2.30
2012,01,01,03,50,2.00
2012,01,01,03,51,2.00
2012,01,01,03,52,0.80
2012,01,01,03,53,2.30
2012,01,01,03,54,5.80
2012,01,01,03,55,2.60
2012,01,01,03,56,1.40
2012,01,01,03,57,1.30
2012,01,01,03,58,2.60
2012,01,01,03,59,4.10
2012,01,01,04,00,2.40
2012,01,01,04,01,1.30
2012,01,01,04,02,2.20
2012,01,01,04,03,2.50
2012,01,01,04,04,2.30
2012,01,01,04,05,2.00
2012,01,01,04,06,3.50
2012,01,01,04,07,5.80
2012,01,01,04,08,2.50
2012,01,01,04,09,1.90
2012,01,01,04,10,2.80
2012,01,01,04,11,6.70
2012,01,01,04,12,3.90
2012,01,01,04,13,2.40
2012,01,01,04,14,1.50
2012,01,01,04,15,2.80
2012,01,01,04,16,4.60
2012,01,01,04,17,5.10
2012,01,01,04,18,3.20
2012,01,01,04,19,1.30
2012,01,01,04,20,0.10
2012,01,01,04,21,2.50
2012,01,01,04,22,3.00
2012,01,01,04,23,3.80
2012,01,01,04,24,5.70
2012,01,01,04,25,0.60
2012,01,01,04,26,0.70
2012,01,01,04,27,4.70
2012,01,01,04,28,4.20
2012,01,01,04,29,3.70
2012,01,01,04,30,5.30
2012,01,01,04,31,3.50
2012,01,01,04,32,3.60
2012,01,01,04,33,1.20
2012,01,01,04,34,4.30
2012,01,01,04,35,3.70
2012,01,01,04,36,2.60
2012,01,01,04,37,3.90
2012,01,01,04,38,3.80
2012,01,01,04,39,4.00
2012,01,01,04,40,0.10
2012,01,01,04,41,1.80
2012,01,01,04,42,2.80
2012,01,01,04,43,3.90
2012,01,01,04,44,1.50
2012,01,01,04,45,1.80
2012,01,01,04,46,3.10
2012,01,01,04,47,5.40
2012,01,01,04,48,5.90
2012,01,01,04,49,5.30
2012,01,01,04,50,5.80
2012,01,01,04,51,6.60
2012,01,01,04,52,6.40
2012,01,01,04,53,4.40
2012,01,01,04,54,9.90
2012,01,01,04,55,2.60
2012,01,01,04,56,3.30
2012,01,01,04,57,3.50
2012,01,01,04,58,2.40
2012,01,01,04,59,4.00
2012,01,01,05,00,4.10
2012,01,01,05,01,5.80
2012,01,01,05,02,8.00
2012,01,01,05,03,3.80
2012,01,01,05,04,4.50
2012,01,01,05,05,1.20
2012,01,01,05,06,1.50
2012,01,01,05,07,5.70
2012,01,01,05,08,3.70
2012,01,01,05,09,5.50
2012,01,01,05,10,3.60
2012,01,01,05,11,3.50
2012,01,01,05,12,2.60
2012,01,01,05,13,3.10
2012,01,01,05,14,1.90
2012,01,01,05,15,3.90
2012,01,01,05,16,5.10
2012,01,01,05,17,3.70
2012,01,01,05,18,2.70
2012,01,01,05,19,5.70
2012,01,01,05,20,4.40
2012,01,01,05,21,6.50
2012,01,01,05,22,5.50
2012,01,01,05,23,4.40
2012,01,01,05,24,6.50
2012,01,01,05,25,4.10
2012,01,01,05,26,6.10
2012,01,01,05,27,5.70
2012,01,01,05,28,7.00
2012,01,01,05,29,6.70
2012,01,01,05,30,4.60
2012,01,01,05,31,4.80
2012,01,01,05,32,2.90
2012,01,01,05,33,8.90
2012,01,01,05,34,7.40
2012,01,01,05,35,5.00
2012,01,01,05,36,11.20
2012,01,01,05,37,4.80
2012,01,01,05,38,6.70
2012,01,01,05,39,4.00
2012,01,01,05,40,4.40
2012,01,01,05,41,3.80
2012,01,01,05,42,8.10
2012,01,01,05,43,5.60
2012,01,01,05,44,10.90
2012,01,01,05,45,9.00
2012,01,01,05,46,6.70
2012,01,01,05,47,10.30
2012,01,01,05,48,9.60
2012,01,01,05,49,9.60
2012,01,01,05,50,9.90
2012,01,01,05,51,10.20
2012,01,01,05,52,11.40
2012,01,01,05,53,6.60
2012,01,01,05,54,7.50
2012,01,01,05,55,5.20
2012,01,01,05,56,8.90
2012,01,01,05,57,6.80
2012,01,01,05,58,5.80
2012,01,01,05,59,6.50
2012,01,01,06,00,3.90
2012,01,01,06,01,5.90
2012,01,01,06,02,5.60
2012,01,01,06,03,3.60
2012,01,01,06,04,3.10
2012,01,01,06,05,9.10
2012,01,01,06,06,9.90
2012,01,01,06,07,11.00
2012,01,01,06,08,5.00
2012,01,01,06,09,3.70
2012,01,01,06,10,4.80
2012,01,01,06,11,7.10
2012,01,01,06,12,5.90
2012,01,01,06,13,6.40
2012,01,01,06,14,4.40
2012,01,01,06,15,4.60
2012,01,01,06,16,5.40
2012,01,01,06,17,6.40
2012,01,01,06,18,2.90
2012,01,01,06,19,2.80
2012,01,01,06,20,3.20
2012,01,01,06,21,6.00
2012,01,01,06,22,3.70
2012,01,01,06,23,6.70
2012,01,01,06,24,5.90
2012,01,01,06,25,7.00
2012,01,01,06,26,3.00
2012,01,01,06,27,1.20
2012,01,01,06,28,0.50
2012,01,01,06,29,1.50
2012,01,01,06,30,4.90
2012,01,01,06,31,5.40
2012,01,01,06,32,8.30
2012,01,01,06,33,5.30
2012,01,01,06,34,8.40
2012,01,01,06,35,3.90
2012,01,01,06,36,5.60
2012,01,01,06,37,2.00
2012,01,01,06,38,3.90
2012,01,01,06,39,4.50
2012,01,01,06,40,8.30
2012,01,01,06,41,6.00
2012,01,01,06,42,3.20
2012,01,01,06,43,5.70
2012,01,01,06,44,5.20
2012,01,01,06,45,3.70
2012,01,01,06,46,4.70
2012,01,01,06,47,3.20
2012,01,01,06,48,5.90
2012,01,01,06,49,4.60
2012,01,01,06,50,5.00
2012,01,01,06,51,6.20
2012,01,01,06,52,5.70
2012,01,01,06,53,2.30
2012,01,01,06,54,5.70
2012,01,01,06,55,2.10
2012,01,01,06,56,3.60
2012,01,01,06,57,4.90
2012,01,01,06,58,3.40
2012,01,01,06,59,6.90
2012,01,01,07,00,4.00
2012,01,01,07,01,9.20
2012,01,01,07,02,3.70
2012,01,01,07,03,3.10
2012,01,01,07,04,5.60
2012,01,01,07,05,3.50
2012,01,01,07,06,3.40
2012,01,01,07,07,3.90
2012,01,01,07,08,2.40
2012,01,01,07,09,3.50
2012,01,01,07,10,3.40
2012,01,01,07,11,3.70
2012,01,01,07,12,3.90
2012,01,01,07,13,1.70
2012,01,01,07,14,6.20
2012,01,01,07,15,9.30
2012,01,01,07,16,6.20
2012,01,01,07,17,7.20
2012,01,01,07,18,4.40
2012,01,01,07,19,5.10
2012,01,01,07,20,2.90
2012,01,01,07,21,2.40
2012,01,01,07,22,1.20
2012,01,01,07,23,3.40
2012,01,01,07,24,1.20
2012,01,01,07,25,2.10
2012,01,01,07,26,2.30
2012,01,01,07,27,4.10
2012,01,01,07,28,1.50
2012,01,01,07,29,5.40
2012,01,01,07,30,4.50
2012,01,01,07,31,6.20
2012,01,01,07,32,4.50
2012,01,01,07,33,4.40
2012,01,01,07,34,4.10
2012,01,01,07,35,1.30
2012,01,01,07,36,1.70
2012,01,01,07,37,3.40
2012,01,01,07,38,2.90
2012,01,01,07,39,3.60
2012,01,01,07,40,5.30
2012,01,01,07,41,7.30
2012,01,01,07,42,8.10
2012,01,01,07,43,6.70
2012,01,01,07,44,7.60
2012,01,01,07,45,6.40
2012,01,01,07,46,6.40
2012,01,01,07,47,8.40
2012,01,01,07,48,5.40
2012,01,01,07,49,2.00
2012,01,01,07,50,5.10
2012,01,01,07,51,3.10
2012,01,01,07,52,0.10
2012,01,01,07,53,4.80
2012,01,01,07,54,3.50
2012,01,01,07,55,4.50
2012,01,01,07,56,5.60
2012,01,01,07,57,5.70
2012,01,01,07,58,6.10
2012,01,01,07,59,5.80
2012,01,01,08,00,8.10
2012,01,01,08,01,6.70
2012,01,01,08,02,7.00
2012,01,01,08,03,4.80
2012,01,01,08,04,9.30
2012,01,01,08,05,5.10
2012,01,01,08,06,5.80
2012,01,01,08,07,2.60
2012,01,01,08,08,3.70
2012,01,01,08,09,1.20
2012,01,01,08,10,1.50
2012,01,01,08,11,1.80
2012,01,01,08,12,4.40
2012,01,01,08,13,6.60
2012,01,01,08,14,4.00
2012,01,01,08,15,3.10
2012,01,01,08,16,3.40
2012,01,01,08,17,3.70
2012,01,01,08,18,1.90
2012,01,01,08,19,0.30
2012,01,01,08,20,3.30
2012,01,01,08,21,2.50
2012,01,01,08,22,2.60
2012,01,01,08,23,5.10
2012,01,01,08,24,7.80
2012,01,01,08,25,6.20
2012,01,01,08,26,4.50
2012,01,01,08,27,3.40
2012,01,01,08,28,5.30
2012,01,01,08,29,4.30
2012,01,01,08,30,6.20
2012,01,01,08,31,5.30
2012,01,01,08,32,4.40
2012,01,01,08,33,2.10
2012,01,01,08,34,4.10
2012,01,01,08,35,3.60
2012,01,01,08,36,4.50
2012,01,01,08,37,5.80
2012,01,01,08,38,3.90
2012,01,01,08,39,3.50
2012,01,01,08,40,3.80
2012,01,01,08,41,4.80
2012,01,01,08,42,7.60
2012,01,01,08,43,5.40
2012,01,01,08,44,4.10
2012,01,01,08,45,1.90
2012,01,01,08,46,5.80
2012,01,01,08,47,3.20
2012,01,01,08,48,4.50
2012,01,01,08,49,4.70
2012,01,01,08,50,4.80
2012,01,01,08,51,3.90
2012,01,01,08,52,6.50
2012,01,01,08,53,7.30
2012,01,01,08,54,3.30
2012,01,01,08,55,6.40
2012,01,01,08,56,6.20
2012,01,01,08,57,2.90
2012,01,01,08,58,6.50
2012,01,01,08,59,5.30
2012,01,01,09,00,5.90
2012,01,01,09,01,3.10
2012,01,01,09,02,3.50
2012,01,01,09,03,4.80
2012,01,01,09,04,3.20
2012,01,01,09,05,2.10
2012,01,01,09,06,2.20
2012,01,01,09,07,2.60
2012,01,01,09,08,3.10
2012,01,01,09,09,1.70
2012,01,01,09,10,2.70
2012,01,01,09,11,3.80
2012,01,01,09,12,5.50
2012,01,01,09,13,2.80
2012,01,01,09,14,4.70
2012,01,01,09,15,3.90
2012,01,01,09,16,3.10
2012,01,01,09,17,1.70
2012,01,01,09,18,2.50
2012,01,01,09,19,3.60
2012,01,01,09,20,1.50
2012,01,01,09,21,3.00
2012,01,01,09,22,4.30
2012,01,01,09,23,3.60
2012,01,01,09,24,3.20
2012,01,01,09,25,3.40
2012,01,01,09,26,2.60
2012,01,01,09,27,2.50
2012,01,01,09,28,6.00
2012,01,01,09,29,2.60
2012,01,01,09,30,2.90
2012,01,01,09,31,7.00
2012,01,01,09,32,4.50
2012,01,01,09,33,4.40
2012,01,01,09,34,5.50
2012,01,01,09,35,5.70
2012,01,01,09,36,5.80
2012,01,01,09,37,6.60
2012,01,01,09,38,6.10
2012,01,01,09,39,6.10
2012,01,01,09,40,4.00
2012,01,01,09,41,5.00
2012,01,01,09,42,6.30
2012,01,01,09,43,4.50
2012,01,01,09,44,3.00
2012,01,01,09,45,3.90
2012,01,01,09,46,5.70
2012,01,01,09,47,3.70
2012,01,01,09,48,4.50
2012,01,01,09,49,8.70
2012,01,01,09,50,4.80
2012,01,01,09,51,5.10
2012,01,01,09,52,5.00
2012,01,01,09,53,6.50
2012,01,01,09,54,5.30
2012,01,01,09,55,5.90
2012,01,01,09,56,4.20
2012,01,01,09,57,5.10
2012,01,01,09,58,5.70
2012,01,01,09,59,4.80
2012,01,01,10,00,6.10
2012,01,01,10,01,6.20
2012,01,01,10,02,6.30
2012,01,01,10,03,4.50
2012,01,01,10,04,5.80
2012,01,01,10,05,5.00
2012,01,01,10,06,6.40
2012,01,01,10,07,5.30
2012,01,01,10,08,3.50
2012,01,01,10,09,6.20
2012,01,01,10,10,5.60
2012,01,01,10,11,7.10
2012,01,01,10,12,6.20
2012,01,01,10,13,6.50
2012,01,01,10,14,2.80
2012,01,01,10,15,6.40
2012,01,01,10,16,3.70
2012,01,01,10,17,5.10
2012,01,01,10,18,2.80
2012,01,01,10,19,4.60
2012,01,01,10,20,4.30
2012,01,01,10,21,4.70
2012,01,01,10,22,6.30
2012,01,01,10,23,6.00
2012,01,01,10,24,4.80
2012,01,01,10,25,2.00
2012,01,01,10,26,1.80
2012,01,01,10,27,8.40
2012,01,01,10,28,6.30
2012,01,01,10,29,7.10
2012,01,01,10,30,8.90
2012,01,01,10,31,9.80
2012,01,01,10,32,8.80
2012,01,01,10,33,9.70
2012,01,01,10,34,5.30
2012,01,01,10,35,2.80
2012,01,01,10,36,2.20
2012,01,01,10,37,5.80
2012,01,01,10,38,2.90
2012,01,01,10,39,5.70
2012,01,01,10,40,5.70
2012,01,01,10,41,2.70
2012,01,01,10,42,4.10
2012,01,01,10,43,4.80
2012,01,01,10,44,4.80
2012,01,01,10,45,1.90
2012,01,01,10,46,3.10
2012,01,01,10,47,3.50
2012,01,01,10,48,4.20
2012,01,01,10,49,7.00
2012,01,01,10,50,8.40
2012,01,01,10,51,7.80
2012,01,01,10,52,11.30
2012,01,01,10,53,7.50
2012,01,01,10,54,8.10
2012,01,01,10,55,5.00
2012,01,01,10,56,8.90
2012,01,01,10,57,4.00
2012,01,01,10,58,3.60
2012,01,01,10,59,3.10
2012,01,01,11,00,4.30
2012,01,01,11,01,7.00
2012,01,01,11,02,6.10
2012,01,01,11,03,6.70
2012,01,01,11,04,7.00
2012,01,01,11,05,9.70
2012,01,01,11,06,12.50
2012,01,01,11,07,12.90
2012,01,01,11,08,12.10
2012,01,01,11,09,11.70
2012,01,01,11,10,6.30
2012,01,01,11,11,3.00
2012,01,01,11,12,2.00
2012,01,01,11,13,1.30
2012,01,01,11,14,1.90
2012,01,01,11,15,2.80
2012,01,01,11,16,3.50
2012,01,01,11,17,3.90
2012,01,01,11,18,4.40
2012,01,01,11,19,7.60
2012,01,01,11,20,4.50
2012,01,01,11,21,6.00
2012,01,01,11,22,9.90
2012,01,01,11,23,4.90
2012,01,01,11,24,3.70
2012,01,01,11,25,5.90
2012,01,01,11,26,8.40
2012,01,01,11,27,10.30
2012,01,01,11,28,3.20
2012,01,01,11,29,5.70
2012,01,01,11,30,10.60
2012,01,01,11,31,6.60
2012,01,01,11,32,11.90
2012,01,01,11,33,5.30
2012,01,01,11,34,10.00
2012,01,01,11,35,9.30
2012,01,01,11,36,13.20
2012,01,01,11,37,7.40
2012,01,01,11,38,11.50
2012,01,01,11,39,6.30
2012,01,01,11,40,7.80
2012,01,01,11,41,10.60
2012,01,01,11,42,10.50
2012,01,01,11,43,8.30
2012,01,01,11,44,11.10
2012,01,01,11,45,8.40
2012,01,01,11,46,8.80
2012,01,01,11,47,8.20
2012,01,01,11,48,7.80
2012,01,01,11,49,9.50
2012,01,01,11,50,8.90
2012,01,01,11,51,7.10
2012,01,01,11,52,6.40
2012,01,01,11,53,4.70
2012,01,01,11,54,6.40
2012,01,01,11,55,14.30
2012,01,01,11,56,12.90
2012,01,01,11,57,12.50
2012,01,01,11,58,9.20
2012,01,01,11,59,8.00
2012,01,01,12,00,8.60
2012,01,01,12,01,14.50
2012,01,01,12,02,9.70
2012,01,01,12,03,17.60
2012,01,01,12,04,11.60
2012,01,01,12,05,8.80
2012,01,01,12,06,11.30
2012,01,01,12,07,7.60
2012,01,01,12,08,10.70
2012,01,01,12,09,8.60
2012,01,01,12,10,9.10
2012,01,01,12,11,9.00
2012,01,01,12,12,9.20
2012,01,01,12,13,9.00
2012,01,01,12,14,10.80
2012,01,01,12,15,14.30
2012,01,01,12,16,14.40
2012,01,01,12,17,11.00
2012,01,01,12,18,7.80
2012,01,01,12,19,14.00
2012,01,01,12,20,17.10
2012,01,01,12,21,15.90
2012,01,01,12,22,12.10
2012,01,01,12,23,13.20
2012,01,01,12,24,15.90
2012,01,01,12,25,11.10
2012,01,01,12,26,10.60
2012,01,01,12,27,8.80
2012,01,01,12,28,8.00
2012,01,01,12,29,10.40
2012,01,01,12,30,9.30
2012,01,01,12,31,7.50
2012,01,01,12,32,7.70
2012,01,01,12,33,5.40
2012,01,01,12,34,9.40
2012,01,01,12,35,5.50
2012,01,01,12,36,11.90
2012,01,01,12,37,7.40
2012,01,01,12,38,6.10
2012,01,01,12,39,8.70
2012,01,01,12,40,5.20
2012,01,01,12,41,12.70
2012,01,01,12,42,6.80
2012,01,01,12,43,10.00
2012,01,01,12,44,8.40
2012,01,01,12,45,12.70
2012,01,01,12,46,9.40
2012,01,01,12,47,11.60
2012,01,01,12,48,12.90
2012,01,01,12,49,15.10
2012,01,01,12,50,16.50
2012,01,01,12,51,15.00
2012,01,01,12,52,16.30
2012,01,01,12,53,12.20
2012,01,01,12,54,11.20
2012,01,01,12,55,12.70
2012,01,01,12,56,9.60
2012,01,01,12,57,9.90
2012,01,01,12,58,8.30
2012,01,01,12,59,11.30
2012,01,01,13,00,17.30
2012,01,01,13,01,12.40
2012,01,01,13,02,12.90
2012,01,01,13,03,17.50
2012,01,01,13,04,15.70
2012,01,01,13,05,11.90
2012,01,01,13,06,8.60
2012,01,01,13,07,12.60
2012,01,01,13,08,8.60
2012,01,01,13,09,9.20
2012,01,01,13,10,10.90
2012,01,01,13,11,13.40
2012,01,01,13,12,8.10
2012,01,01,13,13,9.00
2012,01,01,13,14,8.90
2012,01,01,13,15,11.30
2012,01,01,13,16,7.00
2012,01,01,13,17,8.60
2012,01,01,13,18,16.20
2012,01,01,13,19,13.90
2012,01,01,13,20,5.60
2012,01,01,13,21,8.70
2012,01,01,13,22,11.40
2012,01,01,13,23,6.60
2012,01,01,13,24,7.70
2012,01,01,13,25,4.50
2012,01,01,13,26,11.60
2012,01,01,13,27,14.80
2012,01,01,13,28,11.50
2012,01,01,13,29,12.40
2012,01,01,13,30,10.10
2012,01,01,13,31,10.00
2012,01,01,13,32,17.00
2012,01,01,13,33,11.50
2012,01,01,13,34,12.20
2012,01,01,13,35,16.90
2012,01,01,13,36,10.80
2012,01,01,13,37,14.80
2012,01,01,13,38,9.80
2012,01,01,13,39,12.10
2012,01,01,13,40,13.80
2012,01,01,13,41,13.30
2012,01,01,13,42,8.90
2012,01,01,13,43,10.70
2012,01,01,13,44,14.90
2012,01,01,13,45,14.80
2012,01,01,13,46,11.30
2012,01,01,13,47,11.40
2012,01,01,13,48,12.90
2012,01,01,13,49,16.10
2012,01,01,13,50,12.10
2012,01,01,13,51,9.50
2012,01,01,13,52,10.70
2012,01,01,13,53,9.50
2012,01,01,13,54,10.50
2012,01,01,13,55,10.60
2012,01,01,13,56,14.80
2012,01,01,13,57,13.50
2012,01,01,13,58,14.30
2012,01,01,13,59,15.70
2012,01,01,14,00,10.90
2012,01,01,14,01,12.60
2012,01,01,14,02,15.20
2012,01,01,14,03,11.70
2012,01,01,14,04,12.40
2012,01,01,14,05,15.00
2012,01,01,14,06,13.70
2012,01,01,14,07,9.70
2012,01,01,14,08,8.00
2012,01,01,14,09,11.80
2012,01,01,14,10,9.70
2012,01,01,14,11,9.50
2012,01,01,14,12,10.70
2012,01,01,14,13,5.50
2012,01,01,14,14,9.70
2012,01,01,14,15,6.20
2012,01,01,14,16,6.00
2012,01,01,14,17,11.50
2012,01,01,14,18,13.90
2012,01,01,14,19,7.80
2012,01,01,14,20,11.50
2012,01,01,14,21,11.30
2012,01,01,14,22,13.00
2012,01,01,14,23,14.20
2012,01,01,14,24,16.00
2012,01,01,14,25,12.20
2012,01,01,14,26,13.60
2012,01,01,14,27,13.50
2012,01,01,14,28,9.20
2012,01,01,14,29,16.30
2012,01,01,14,30,14.80
2012,01,01,14,31,12.30
2012,01,01,14,32,12.60
2012,01,01,14,33,10.60
2012,01,01,14,34,15.10
2012,01,01,14,35,7.20
2012,01,01,14,36,8.20
2012,01,01,14,37,14.00
2012,01,01,14,38,13.60
2012,01,01,14,39,9.70
2012,01,01,14,40,14.60
2012,01,01,14,41,14.60
2012,01,01,14,42,17.20
2012,01,01,14,43,15.90
2012,01,01,14,44,14.30
2012,01,01,14,45,14.30
2012,01,01,14,46,12.60
2012,01,01,14,47,13.80
2012,01,01,14,48,13.40
2012,01,01,14,49,15.00
2012,01,01,14,50,18.10
2012,01,01,14,51,20.30
2012,01,01,14,52,11.60
2012,01,01,14,53,18.80
2012,01,01,14,54,19.10
2012,01,01,14,55,12.60
2012,01,01,14,56,10.40
2012,01,01,14,57,12.00
2012,01,01,14,58,8.70
2012,01,01,14,59,12.50
2012,01,01,15,00,8.30
2012,01,01,15,01,11.50
2012,01,01,15,02,6.50
2012,01,01,15,03,7.20
2012,01,01,15,04,13.00
2012,01,01,15,05,10.20
2012,01,01,15,06,8.90
2012,01,01,15,07,10.70
2012,01,01,15,08,13.40
2012,01,01,15,09,8.60
2012,01,01,15,10,12.30
2012,01,01,15,11,17.00
2012,01,01,15,12,10.90
2012,01,01,15,13,10.40
2012,01,01,15,14,7.80
2012,01,01,15,15,11.00
2012,01,01,15,16,10.30
2012,01,01,15,17,16.00
2012,01,01,15,18,9.60
2012,01,01,15,19,12.50
2012,01,01,15,20,7.10
2012,01,01,15,21,6.60
2012,01,01,15,22,13.00
2012,01,01,15,23,10.30
2012,01,01,15,24,10.70
2012,01,01,15,25,10.30
2012,01,01,15,26,8.30
2012,01,01,15,27,10.90
2012,01,01,15,28,10.60
2012,01,01,15,29,11.60
2012,01,01,15,30,12.20
2012,01,01,15,31,12.50
2012,01,01,15,32,11.30
2012,01,01,15,33,9.40
2012,01,01,15,34,8.10
2012,01,01,15,35,6.10
2012,01,01,15,36,7.00
2012,01,01,15,37,8.70
2012,01,01,15,38,4.90
2012,01,01,15,39,6.70
2012,01,01,15,40,10.40
2012,01,01,15,41,13.50
2012,01,01,15,42,13.30
2012,01,01,15,43,11.90
2012,01,01,15,44,10.30
2012,01,01,15,45,12.10
2012,01,01,15,46,11.60
2012,01,01,15,47,10.70
2012,01,01,15,48,9.00
2012,01,01,15,49,5.30
2012,01,01,15,50,7.20
2012,01,01,15,51,18.60
2012,01,01,15,52,11.70
2012,01,01,15,53,8.70
2012,01,01,15,54,16.50
2012,01,01,15,55,12.80
2012,01,01,15,56,13.30
2012,01,01,15,57,14.00
2012,01,01,15,58,12.10
2012,01,01,15,59,13.60
2012,01,01,16,00,9.10
2012,01,01,16,01,7.60
2012,01,01,16,02,7.50
2012,01,01,16,03,5.60
2012,01,01,16,04,6.80
2012,01,01,16,05,14.00
2012,01,01,16,06,14.30
2012,01,01,16,07,16.30
2012,01,01,16,08,15.50
2012,01,01,16,09,16.20
2012,01,01,16,10,16.20
2012,01,01,16,11,16.80
2012,01,01,16,12,14.80
2012,01,01,16,13,15.60
2012,01,01,16,14,17.60
2012,01,01,16,15,15.10
2012,01,01,16,16,14.40
2012,01,01,16,17,14.10
2012,01,01,16,18,11.80
2012,01,01,16,19,10.80
2012,01,01,16,20,14.00
2012,01,01,16,21,13.30
2012,01,01,16,22,11.80
2012,01,01,16,23,15.80
2012,01,01,16,24,17.00
2012,01,01,16,25,11.10
2012,01,01,16,26,8.20
2012,01,01,16,27,9.40
2012,01,01,16,28,8.60
2012,01,01,16,29,7.70
2012,01,01,16,30,5.80
2012,01,01,16,31,8.30
2012,01,01,16,32,8.50
2012,01,01,16,33,9.30
2012,01,01,16,34,5.90
2012,01,01,16,35,6.40
2012,01,01,16,36,6.20
2012,01,01,16,37,7.90
2012,01,01,16,38,8.90
2012,01,01,16,39,10.40
2012,01,01,16,40,11.80
2012,01,01,16,41,11.20
2012,01,01,16,42,10.40
2012,01,01,16,43,13.30
2012,01,01,16,44,12.80
2012,01,01,16,45,13.20
2012,01,01,16,46,10.00
2012,01,01,16,47,14.50
2012,01,01,16,48,6.70
2012,01,01,16,49,6.50
2012,01,01,16,50,13.90
2012,01,01,16,51,16.50
2012,01,01,16,52,11.90
2012,01,01,16,53,13.20
2012,01,01,16,54,14.80
2012,01,01,16,55,9.70
2012,01,01,16,56,13.80
2012,01,01,16,57,14.30
2012,01,01,16,58,6.60
2012,01,01,16,59,13.50
2012,01,01,17,00,11.10
2012,01,01,17,01,8.10
2012,01,01,17,02,5.20
2012,01,01,17,03,7.50
2012,01,01,17,04,6.70
2012,01,01,17,05,9.90
2012,01,01,17,06,5.30
2012,01,01,17,07,4.10
2012,01,01,17,08,5.50
2012,01,01,17,09,5.90
2012,01,01,17,10,4.50
2012,01,01,17,11,7.70
2012,01,01,17,12,9.10
2012,01,01,17,13,7.00
2012,01,01,17,14,4.00
2012,01,01,17,15,4.30
2012,01,01,17,16,4.00
2012,01,01,17,17,3.80
2012,01,01,17,18,7.20
2012,01,01,17,19,3.90
2012,01,01,17,20,4.80
2012,01,01,17,21,8.30
2012,01,01,17,22,6.70
2012,01,01,17,23,9.30
2012,01,01,17,24,7.80
2012,01,01,17,25,7.90
2012,01,01,17,26,12.80
2012,01,01,17,27,11.30
2012,01,01,17,28,14.60
2012,01,01,17,29,13.50
2012,01,01,17,30,11.80
2012,01,01,17,31,10.00
2012,01,01,17,32,9.30
2012,01,01,17,33,7.40
2012,01,01,17,34,7.40
2012,01,01,17,35,6.60
2012,01,01,17,36,5.50
2012,01,01,17,37,3.70
2012,01,01,17,38,10.80
2012,01,01,17,39,12.40
2012,01,01,17,40,10.60
2012,01,01,17,41,12.10
2012,01,01,17,42,10.60
2012,01,01,17,43,10.30
2012,01,01,17,44,10.60
2012,01,01,17,45,10.20
2012,01,01,17,46,8.70
2012,01,01,17,47,12.50
2012,01,01,17,48,11.90
2012,01,01,17,49,13.20
2012,01,01,17,50,14.00
2012,01,01,17,51,12.90
2012,01,01,17,52,12.90
2012,01,01,17,53,14.10
2012,01,01,17,54,12.70
2012,01,01,17,55,9.20